Le nostre stazioni meteo in Italia

Pubblicità
Il mio iltempo24.it
Grosseto, Italia (16206): Temperatura & dewpoint: 03.07.2020 07:00:00 - 09.07.2020 07:00:00 (CEST)Grosseto, Italia (16206): velocità del vento: 03.07.2020 07:00:00 - 09.07.2020 07:00:00 (CEST)Grosseto, Italia (16206): direzione del vento: 03.07.2020 07:00:00 - 09.07.2020 07:00:00 (CEST)Grosseto, Italia (16206): reduced air pressure: 03.07.2020 07:00:00 - 09.07.2020 07:00:00 (CEST)Grosseto, Italia (16206): visibility: 03.07.2020 07:00:00 - 09.07.2020 07:00:00 (CEST)
Data & Tempo tt [°C] td [°C] ff [km/h] ff [kn] dd ppp [hPa] vv [km]
09.07.2020 07:00:00 17,2 14,1 8 4 N 1016,4 40
09.07.2020 06:00:00 18,0 13,3 8 4 N 1016,2 50
09.07.2020 05:00:00 16,4 13,1 5 3 N 1016,2 30
09.07.2020 04:00:00 18,0 14,1 5 3 NE 1016,2 30
09.07.2020 03:00:00 18,0 13,3 4 2 N 1016,2 30
09.07.2020 02:00:00 18,8 13,4 4 2 NNO 1016,0 30
09.07.2020 01:00:00 19,0 13,8 4 2 N 1015,8 30
09.07.2020 00:00:00 21,8 16,3 5 3 ENE 1015,6 30
08.07.2020 23:00:00 22,0 16,7 5 3 E 1015,6 30
08.07.2020 22:00:00 22,8 14,6 8 4 SE 1015,1 50
08.07.2020 21:00:00 25,0 12,9 8 4 S 1014,8 50
08.07.2020 20:00:00 28,0 12,0 15 8 SSO 1014,7 50
08.07.2020 19:00:00 27,6 15,0 18 10 SSO 1014,8 50
08.07.2020 18:00:00 27,4 13,7 21 11 OSO 1015,1 50
08.07.2020 17:00:00 28,8 16,0 22 12 SO 1015,3 50
08.07.2020 16:00:00 30,0 14,1 26 14 SO 1015,3 50
08.07.2020 15:00:00 29,0 13,7 24 13 SO 1015,3 50
08.07.2020 14:00:00 30,2 13,9 21 11 SO 1015,8 40
08.07.2020 13:00:00 30,4 13,7 9 5 SO 1016,0 30
08.07.2020 12:00:00 29,8 11,8 4 2 N 1016,1 30
08.07.2020 11:00:00 27,8 11,8 4 2 OSO 1016,0 40
08.07.2020 10:00:00 26,8 11,3 9 5 NE 1015,8 30
08.07.2020 09:00:00 24,0 10,7 8 4 E 1015,7 30
08.07.2020 08:00:00 21,6 10,4 4 2 N 1015,1 30
08.07.2020 07:00:00 18,6 9,7 5 3 ONO 1014,9 25
08.07.2020 06:00:00 17,8 8,4 4 2 N 1014,7 20
08.07.2020 05:00:00 18,6 8,8 5 3 NNO 1014,7 15
08.07.2020 04:00:00 18,8 9,0 9 5 N 1014,7 15
08.07.2020 03:00:00 21,0 9,0 16 9 NE 1014,7 15
08.07.2020 02:00:00 21,8 9,7 16 9 NNE 1014,6 15
08.07.2020 01:00:00 22,8 10,9 16 9 N 1014,2 15
08.07.2020 00:00:00 23,6 12,0 16 9 N 1013,8 15
07.07.2020 23:00:00 24,2 12,5 21 11 N 1013,6 15
07.07.2020 22:00:00 25,4 13,3 16 9 NNE 1012,8 15
07.07.2020 21:00:00 27,0 13,7 18 10 NNE 1011,9 20
07.07.2020 20:00:00 28,8 13,9 24 13 NNE 1011,8 30
07.07.2020 19:00:00 30,6 14,3 24 13 NE 1011,4 30
07.07.2020 18:00:00 31,8 15,3 18 10 NNE 1011,5 10
07.07.2020 17:00:00 32,0 15,5 24 13 NNE 1011,4 30
07.07.2020 16:00:00 32,6 15,6 26 14 NNE 1011,2 25
07.07.2020 15:00:00 31,6 14,7 31 17 NE 1011,1 25
07.07.2020 14:00:00 32,2 15,7 35 19 NNE 1010,9 25
07.07.2020 13:00:00 31,4 15,8 37 20 NNE 1010,6 20
07.07.2020 12:00:00 30,6 16,2 35 19 NE 1010,2 20
07.07.2020 11:00:00 30,2 16,6 35 19 NE 1009,8 15
07.07.2020 10:00:00 29,8 17,3 28 15 NE 1008,9 20
07.07.2020 09:00:00 26,8 16,1 13 7 N 1008,5 40
07.07.2020 08:00:00 24,2 17,0 9 5 NNE 1008,2 30
07.07.2020 07:00:00 20,4 17,6 5 3 NE 1007,9 30
07.07.2020 06:00:00 19,2 15,9 4 2 N 1007,5 40
07.07.2020 05:00:00 19,2 15,9 4 2 SSE 1007,3 40
07.07.2020 04:00:00 20,0 15,2 8 4 N 1007,2 30
07.07.2020 03:00:00 20,0 15,2 5 3 N 1007,2 30
07.07.2020 02:00:00 20,8 15,6 5 3 NO 1007,2 30
07.07.2020 01:00:00 21,8 15,6 4 2 N 1007,3 30
07.07.2020 00:00:00 23,8 13,7 9 5 N 1007,2 40
06.07.2020 23:00:00 22,6 17,3 5 3 E 1007,2 40
06.07.2020 22:00:00 25,4 15,7 4 2 N 1006,9 40
06.07.2020 21:00:00 27,8 13,4 5 3 E 1006,4 40
06.07.2020 20:00:00 29,8 14,0 11 6 O 1006,7 50
06.07.2020 19:00:00 31,6 13,8 15 8 OSO 1006,8 50
06.07.2020 18:00:00 33,0 14,1 22 12 OSO 1007,0 50
06.07.2020 17:00:00 33,4 14,5 29 16 OSO 1007,1 50
06.07.2020 16:00:00 34,0 15,0 31 17 OSO 1007,7 50
06.07.2020 15:00:00 34,2 14,2 26 14 SO 1008,2 50
06.07.2020 14:00:00 34,2 14,7 22 12 SO 1008,4 50
06.07.2020 13:00:00 33,2 11,1 9 5 NE 1009,2 50
06.07.2020 12:00:00 32,6 14,2 16 9 NE 1009,7 50
06.07.2020 11:00:00 31,2 12,1 18 10 ENE 1010,2 40
06.07.2020 10:00:00 28,8 13,1 4 2 N 1010,5 40
06.07.2020 09:00:00 26,2 14,0 9 5 N 1011,0 40
06.07.2020 08:00:00 22,6 15,7 2 1 E 1011,0 40
06.07.2020 07:00:00 19,4 15,5 5 3 SE 1011,1 40
06.07.2020 06:00:00 17,6 14,9 4 2 N 1011,4 40
06.07.2020 05:00:00 19,0 15,3 5 3 ONO 1011,9 40
06.07.2020 04:00:00 19,4 15,7 5 3 SSO 1012,3 35
06.07.2020 03:00:00 21,0 16,2 11 6 NNE 1012,8 35
06.07.2020 02:00:00 22,6 16,6 13 7 N 1013,1 35
06.07.2020 01:00:00 20,4 14,1 9 5 N 1013,2 35
06.07.2020 00:00:00 23,2 16,0 8 4 NNE 1013,2 35
05.07.2020 23:00:00 25,0 15,6 11 6 NNO 1012,9 35
05.07.2020 22:00:00 26,0 14,2 15 8 N 1012,8 35
05.07.2020 21:00:00 27,8 13,4 16 9 NNO 1011,9 40
05.07.2020 20:00:00 29,6 13,8 26 14 NO 1012,2 40
05.07.2020 19:00:00 31,0 13,8 24 13 ONO 1012,4 40
05.07.2020 18:00:00 32,2 13,4 26 14 ONO 1012,6 40
05.07.2020 17:00:00 34,0 12,4 18 10 NNO 1013,3 40
05.07.2020 16:00:00 33,4 11,3 18 10 NNO 1013,8 40
05.07.2020 15:00:00 33,4 9,5 16 9 NNO 1014,2 40
05.07.2020 14:00:00 33,0 10,4 18 10 NNE 1014,9 40
05.07.2020 13:00:00 32,6 11,2 15 8 N 1015,3 40
05.07.2020 12:00:00 31,0 10,4 21 11 NE 1015,8 40
05.07.2020 11:00:00 30,2 11,2 21 11 NNE 1015,9 40
05.07.2020 10:00:00 28,0 13,5 13 7 NE 1016,1 35
05.07.2020 09:00:00 25,0 16,7 4 2 N 1016,5 40
05.07.2020 08:00:00 22,6 16,2 4 2 N 1016,5 40
05.07.2020 07:00:00 20,8 16,4 8 4 E 1016,5 40
05.07.2020 06:00:00 19,0 15,9 4 2 N 1016,5 40
05.07.2020 05:00:00 18,6 16,6 2 1 SE 1016,4 30
05.07.2020 04:00:00 20,6 17,2 8 4 NNE 1016,4 40
05.07.2020 03:00:00 21,0 17,8 9 5 ENE 1016,4 30
05.07.2020 02:00:00 21,0 17,6 9 5 NNE 1016,1 30
05.07.2020 01:00:00 21,6 17,6 16 9 E 1016,0 30
05.07.2020 00:00:00 22,0 17,2 9 5 NNE 1015,9 30
04.07.2020 23:00:00 21,6 18,0 11 6 NE 1015,8 30
04.07.2020 22:00:00 23,0 17,7 2 1 ONO 1015,8 20
04.07.2020 21:00:00 24,4 17,4 4 2 ONO 1015,4 20
04.07.2020 20:00:00 25,8 18,2 9 5 OSO 1015,3 30
04.07.2020 19:00:00 25,8 18,5 5 3 S 1015,3 30
04.07.2020 18:00:00 24,4 18,1 16 9 S 1015,8 25
04.07.2020 17:00:00 29,0 17,5 16 9 S 1014,9 20
04.07.2020 16:00:00 33,4 17,2 24 13 SE 1013,8 30
04.07.2020 15:00:00 32,8 14,0 15 8 NNE 1013,7 30
04.07.2020 14:00:00 32,8 14,0 22 12 N 1013,8 30
04.07.2020 13:00:00 31,8 14,0 18 10 N 1014,3 40
04.07.2020 12:00:00 31,0 14,2 24 13 NNE 1014,2 40
04.07.2020 11:00:00 29,6 15,0 22 12 ENE 1014,1 40
04.07.2020 10:00:00 28,4 16,0 28 15 NE 1014,1 30
04.07.2020 09:00:00 26,0 16,3 21 11 NNE 1014,0 30
04.07.2020 08:00:00 24,8 17,0 18 10 NE 1013,5 30
04.07.2020 07:00:00 20,4 16,0 4 2 N 1013,3 30
04.07.2020 06:00:00 19,6 15,2 9 5 NNE 1013,1 40
04.07.2020 05:00:00 20,0 13,9 15 8 N 1013,0 30
04.07.2020 04:00:00 20,2 14,1 16 9 N 1012,7 30
04.07.2020 03:00:00 21,4 11,4 9 5 N 1013,0 30
04.07.2020 02:00:00 22,6 11,4 18 10 NE 1013,6 30
04.07.2020 01:00:00 23,0 12,3 9 5 N 1013,8 30
04.07.2020 00:00:00 24,4 13,9 21 11 NNO 1013,6 30
03.07.2020 23:00:00 25,0 13,2 13 7 NNE 1013,0 30
03.07.2020 22:00:00 26,2 13,7 11 6 NNO 1012,0 30
03.07.2020 21:00:00 26,8 12,8 11 6 NNO 1011,7 10
03.07.2020 20:00:00 28,6 13,3 15 8 ONO 1011,1 40
03.07.2020 19:00:00 29,8 14,0 16 9 ONO 1010,8 40
03.07.2020 18:00:00 30,6 14,7 16 9 ONO 1011,1 40
03.07.2020 17:00:00 30,0 14,5 15 8 OSO 1011,3 40
03.07.2020 16:00:00 29,0 14,8 26 14 OSO 1011,3 40
03.07.2020 15:00:00 32,4 14,1 28 15 OSO 1011,8 40
03.07.2020 14:00:00 32,4 13,6 26 14 SO 1011,8 40
03.07.2020 13:00:00 31,6 15,1 21 11 SO 1012,0 40
03.07.2020 12:00:00 30,4 14,9 16 9 OSO 1011,8 30
03.07.2020 11:00:00 29,4 16,6 8 4 O 1011,5 30
03.07.2020 10:00:00 28,4 15,3 4 2 N 1011,6 20
03.07.2020 09:00:00 25,8 17,5 4 2 N 1011,7 20
03.07.2020 08:00:00 22,8 17,7 5 3 NNO 1011,3 8
03.07.2020 07:00:00 20,8 17,2 8 4 NNE 1011,2 7

tt = Temperatura
td = dewpoint
ff = velocità del vento
dd = direzione del vento
ppp = reduced air pressure
vv = visibility

Stazioni seguenti

WeatherPro
AMSI
MeteoEarth